Location: Seattle
(47.6064°N, 122.3308°W)
Time: 01:02:11
(UTC-07:00)

UKube-1 - Pass Details

Date: 07 April 2023
Orbit: 602 x 605 km, 98.3° (Epoch: 28 May)

Event Time Altitude Azimuth Distance (km) Brightness Sun altitude
Rises 00:53:31 0° 9° (N) 2,869 ? -35.5°
Reaches altitude 10° 00:55:44 10° 5° (N) 1,962 ? -35.5°
Enters shadow 00:56:54 18° 0° (N) 1,505 ? -35.5°
